Location: Gro�sch�nbrunn
(49.5760°N, 11.8868°E)
Time: 15:36:37
(UTC+00:00)

Cosmos 1300 Rocket - Pass Details

Date: 18 September 2020
Orbit: 601 x 627 km, 82.5° (Epoch: 30 October)

Event Time Altitude Azimuth Distance (km) Brightness Sun altitude
Rises 18:16:56 0° 167° (SSE) 2,877 6.7 -10.2°
Reaches altitude 10° 18:19:14 10° 160° (SSE) 1,981 5.8 -10.6°
Maximum altitude 18:23:18 38° 92° (E) 948 4.0 -11.2°
Drops below altitude 10° 18:27:26 10° 24° (NNE) 2,009 6.1 -11.8°
Sets 18:29:47 0° 17° (NNE) 2,924 7.0 -12.2°
